Tracking 30685 objects as of 17-Jun-2025
HD Live streaming from Space Station
objects crossing your sky now

COSMOS 1275 DEB

Track COSMOS 1275 DEB now!
10-day predictions


NORAD ID: 12767
Int'l Code: 1981-053DL
Perigee: 828.5 km
Apogee: 899.4 km
Inclination: 83.0 °
Period: 102.1 minutes
Semi major axis: 7234 km
RCS: 0.055 m2 (small)
Launch date: June 4, 1981
Source: Commonwealth of Independent States (former USSR) (CIS)
Launch site: PLESETSK MISSILE AND SPACE COMPLEX (PKMTR)

Note: This is SATELLITE DEBRIS
Your satellite tracking list
Your tracking list is empty




NASA's NSSDC Master Catalog

Two Line Element Set (TLE):
1 12767U 81053DL  25167.89167905  .00000821  00000-0  44503-3 0  9996
2 12767  82.9579  43.6765 0049013 120.8993 256.1781 14.10751465239889
Source of the keplerian elements: AFSPC